When you browse on this site, cookies collect data to enhance your experience and personalize the content and advertising you see.
Visit our Privacy Policy to learn more. By continuing to use the site, you agree to this use of cookies and data.
  • In Hungary
  • List of Countries
  • For 7 days
  • Water Temperature
  • Satellite Maps
  • Weather Map
  • News
  • Weather Widgets
  • user-avatar
    Login

    Hourly Weather Mezhgornyy

    Today, 20 January, Sunday

    Time Temperature Precipitation Wind Pressure Humidity
    00:00 -9°C° 0 mm 2 mps 743 mmHg 95%
    01:00 -9°C° 0 mm 2 mps 743 mmHg 96%
    02:00 -9°C° 0.1 mm 2 mps 743 mmHg 96%
    03:00 -8°C° 0.1 mm 2 mps 743 mmHg 96%
    04:00 -7°C° 0 mm 2 mps 742 mmHg 96%
    05:00 -8°C° 0 mm 3 mps 742 mmHg 96%
    06:00 -8°C° 0 mm 3 mps 742 mmHg 96%
    07:00 -9°C° 0 mm 4 mps 741 mmHg 96%
    08:00 -8°C° 0.1 mm 4 mps 741 mmHg 96%
    09:00 -8°C° 0.1 mm 4 mps 741 mmHg 96%
    10:00 -8°C° 0.1 mm 4 mps 741 mmHg 96%
    11:00 -7°C° 0.2 mm 5 mps 741 mmHg 95%
    12:00 -6°C° 0.2 mm 5 mps 741 mmHg 95%
    13:00 -5°C° 0.2 mm 5 mps 741 mmHg 95%
    14:00 -5°C° 0.1 mm 6 mps 741 mmHg 93%
    15:00 -5°C° 0.1 mm 6 mps 742 mmHg 92%
    16:00 -6°C° 0.1 mm 7 mps 742 mmHg 90%
    17:00 -9°C° 0 mm 6 mps 743 mmHg 90%
    18:00 -11°C° 0 mm 6 mps 744 mmHg 91%
    19:00 -13°C° 0 mm 5 mps 745 mmHg 91%
    20:00 -15°C° 0 mm 4 mps 745 mmHg 91%
    21:00 -17°C° 0 mm 4 mps 746 mmHg 92%
    22:00 -19°C° 0 mm 4 mps 747 mmHg 92%
    23:00 -19°C° 0 mm 3 mps 747 mmHg 94%

    Tomorrow, 21 January, Monday

    Time Temperature Precipitation Wind Pressure Humidity
    00:00 -19°C° 0 mm 3 mps 748 mmHg 96%
    01:00 -21°C° 0 mm 3 mps 748 mmHg 97%
    02:00 -19°C° 0 mm 2 mps 749 mmHg 98%
    03:00 -19°C° 0 mm 2 mps 749 mmHg 98%
    04:00 -17°C° 0 mm 1 mps 750 mmHg 99%
    05:00 -17°C° 0 mm 1 mps 750 mmHg 99%
    06:00 -17°C° 0 mm 1 mps 751 mmHg 99%
    07:00 -17°C° 0 mm 1 mps 751 mmHg 99%
    08:00 -19°C° 0 mm 2 mps 751 mmHg 99%
    09:00 -19°C° 0 mm 2 mps 751 mmHg 98%
    10:00 -19°C° 0 mm 2 mps 752 mmHg 98%
    11:00 -18°C° 0 mm 2 mps 752 mmHg 97%
    12:00 -18°C° 0 mm 3 mps 752 mmHg 96%
    13:00 -17°C° 0 mm 3 mps 751 mmHg 96%
    14:00 -18°C° 0 mm 3 mps 751 mmHg 96%
    15:00 -18°C° 0 mm 3 mps 751 mmHg 96%
    16:00 -19°C° 0 mm 3 mps 751 mmHg 95%
    17:00 -19°C° 0 mm 3 mps 750 mmHg 95%
    18:00 -20°C° 0 mm 4 mps 750 mmHg 94%
    19:00 -20°C° 0 mm 4 mps 750 mmHg 94%
    20:00 -20°C° 0 mm 4 mps 749 mmHg 92%
    21:00 -20°C° 0 mm 5 mps 749 mmHg 91%
    22:00 -20°C° 0 mm 5 mps 748 mmHg 89%
    23:00 -20°C° 0 mm 6 mps 748 mmHg 86%

    Day after tomorrow, 22 January, Tuesday

    Time Temperature Precipitation Wind Pressure Humidity
    00:00 -19°C° 0 mm 7 mps 747 mmHg 84%
    01:00 -18°C° 0 mm 7 mps 747 mmHg 81%
    02:00 -18°C° 0 mm 7 mps 746 mmHg 80%
    03:00 -17°C° 0 mm 7 mps 745 mmHg 78%
    04:00 -16°C° 0 mm 8 mps 745 mmHg 77%
    05:00 -16°C° 0.2 mm 8 mps 744 mmHg 80%
    06:00 -15°C° 0.2 mm 9 mps 743 mmHg 84%
    07:00 -14°C° 0.2 mm 9 mps 743 mmHg 88%
    08:00 -12°C° 0.6 mm 9 mps 742 mmHg 90%
    09:00 -10°C° 0.6 mm 9 mps 742 mmHg 91%
    10:00 -8°C° 0.6 mm 9 mps 742 mmHg 93%
    11:00 -7°C° 0.8 mm 10 mps 741 mmHg 93%
    12:00 -5°C° 0.8 mm 10 mps 741 mmHg 93%
    13:00 -4°C° 0.8 mm 10 mps 741 mmHg 92%
    14:00 -5°C° 0.7 mm 9 mps 741 mmHg 93%
    15:00 -4°C° 0.7 mm 7 mps 741 mmHg 94%
    16:00 -5°C° 0.7 mm 6 mps 741 mmHg 94%
    17:00 -7°C° 0.3 mm 5 mps 742 mmHg 94%
    18:00 -11°C° 0.3 mm 5 mps 742 mmHg 94%
    19:00 -14°C° 0.3 mm 4 mps 743 mmHg 93%
    20:00 -15°C° 0 mm 3 mps 743 mmHg 95%
    21:00 -17°C° 0 mm 3 mps 743 mmHg 96%
    22:00 -18°C° 0 mm 2 mps 744 mmHg 97%
    23:00 -18°C° 0 mm 2 mps 744 mmHg 97%

    23 January, Wednesday

    Time Temperature Precipitation Wind Pressure Humidity
    00:00 -19°C° 0 mm 2 mps 745 mmHg 97%
    01:00 -19°C° 0 mm 2 mps 745 mmHg 97%
    02:00 -20°C° 0 mm 2 mps 746 mmHg 97%
    03:00 -21°C° 0 mm 2 mps 746 mmHg 96%
    04:00 -24°C° 0 mm 3 mps 747 mmHg 96%
    05:00 -23°C° 0 mm 2 mps 747 mmHg 95%
    06:00 -24°C° 0 mm 2 mps 748 mmHg 95%
    07:00 -25°C° 0 mm 2 mps 748 mmHg 95%
    08:00 -25°C° 0 mm 2 mps 749 mmHg 95%
    09:00 -25°C° 0 mm 2 mps 749 mmHg 96%
    10:00 -25°C° 0 mm 2 mps 750 mmHg 96%
    11:00 -25°C° 0 mm 3 mps 750 mmHg 95%
    12:00 -24°C° 0 mm 3 mps 751 mmHg 95%
    13:00 -24°C° 0 mm 3 mps 751 mmHg 95%
    14:00 -24°C° 0 mm 3 mps 751 mmHg 95%
    15:00 -25°C° 0 mm 3 mps 752 mmHg 96%
    16:00 -25°C° 0 mm 2 mps 752 mmHg 96%
    17:00 -26°C° 0 mm 2 mps 752 mmHg 96%
    18:00 -27°C° 0 mm 2 mps 753 mmHg 96%
    19:00 -27°C° 0 mm 2 mps 753 mmHg 96%
    20:00 -28°C° 0 mm 2 mps 754 mmHg 95%
    21:00 -28°C° 0 mm 2 mps 754 mmHg 94%
    22:00 -28°C° 0 mm 2 mps 754 mmHg 93%
    23:00 -25°C° 0 mm 1 mps 755 mmHg 93%

    24 January, Thursday

    Time Temperature Precipitation Wind Pressure Humidity
    00:00 -25°C° 0 mm 1 mps 755 mmHg 93%
    01:00 -25°C° 0 mm 1 mps 756 mmHg 93%
    02:00 -25°C° 0 mm 1 mps 756 mmHg 94%
    03:00 -27°C° 0 mm 1 mps 756 mmHg 94%
    04:00 -27°C° 0 mm 1 mps 756 mmHg 95%
    05:00 -27°C° 0 mm 1 mps 757 mmHg 96%
    06:00 -26°C° 0 mm 0 mps 757 mmHg 97%
    07:00 -26°C° 0 mm 0 mps 757 mmHg 98%
    08:00 -25°C° 0 mm 1 mps 757 mmHg 96%
    09:00 -24°C° 0 mm 1 mps 758 mmHg 95%
    10:00 -23°C° 0 mm 1 mps 758 mmHg 93%
    11:00 -22°C° 0 mm 1 mps 758 mmHg 92%
    12:00 -24°C° 0 mm 2 mps 758 mmHg 92%
    13:00 -21°C° 0 mm 2 mps 758 mmHg 91%
    14:00 -23°C° 0 mm 2 mps 758 mmHg 91%
    15:00 -23°C° 0 mm 2 mps 758 mmHg 91%
    16:00 -23°C° 0 mm 2 mps 758 mmHg 90%
    17:00 -25°C° 0 mm 3 mps 758 mmHg 90%
    18:00 -25°C° 0 mm 3 mps 758 mmHg 89%
    19:00 -26°C° 0 mm 3 mps 758 mmHg 88%
    20:00 -26°C° 0 mm 3 mps 758 mmHg 87%
    21:00 -26°C° 0 mm 3 mps 758 mmHg 87%
    22:00 -26°C° 0 mm 3 mps 758 mmHg 86%
    23:00 -25°C° 0 mm 3 mps 758 mmHg 86%

    25 January, Friday

    Time Temperature Precipitation Wind Pressure Humidity
    00:00 -25°C° 0 mm 3 mps 757 mmHg 86%
    01:00 -25°C° 0 mm 3 mps 757 mmHg 86%
    02:00 -25°C° 0 mm 3 mps 757 mmHg 85%
    03:00 -25°C° 0 mm 3 mps 757 mmHg 85%
    04:00 -25°C° 0 mm 3 mps 757 mmHg 85%
    05:00 -25°C° 0 mm 3 mps 757 mmHg 84%
    06:00 -25°C° 0 mm 3 mps 757 mmHg 84%
    07:00 -25°C° 0 mm 3 mps 756 mmHg 83%
    08:00 -24°C° 0 mm 3 mps 756 mmHg 83%
    09:00 -24°C° 0 mm 3 mps 756 mmHg 83%
    10:00 -24°C° 0 mm 3 mps 756 mmHg 83%
    11:00 -22°C° 0 mm 3 mps 756 mmHg 82%
    12:00 -21°C° 0 mm 3 mps 756 mmHg 81%
    13:00 -20°C° 0 mm 4 mps 755 mmHg 81%
    14:00 -19°C° 0 mm 3 mps 755 mmHg 82%
    15:00 -19°C° 0 mm 3 mps 755 mmHg 83%
    16:00 -19°C° 0 mm 3 mps 754 mmHg 84%
    17:00 -21°C° 0 mm 3 mps 754 mmHg 83%
    18:00 -21°C° 0 mm 3 mps 754 mmHg 83%
    19:00 -20°C° 0 mm 2 mps 754 mmHg 82%
    20:00 -20°C° 0 mm 2 mps 754 mmHg 83%
    21:00 -22°C° 0 mm 3 mps 754 mmHg 83%
    22:00 -22°C° 0 mm 3 mps 754 mmHg 84%
    23:00 -22°C° 0 mm 3 mps 753 mmHg 84%
    Show more